Hourly Weather Homsk

Today, 12 April, Monday

Time Temperature Precipitation Wind Pressure Humidity
00:00 +8°C° 0 mm 5 mps 753 mmHg 61%
01:00 +7°C° 0 mm 5 mps 753 mmHg 61%
02:00 +7°C° 0 mm 5 mps 753 mmHg 61%
03:00 +7°C° 0 mm 4 mps 753 mmHg 61%
04:00 +6°C° 0 mm 4 mps 753 mmHg 61%
05:00 +6°C° 0 mm 4 mps 753 mmHg 60%
06:00 +6°C° 0 mm 5 mps 753 mmHg 59%
07:00 +7°C° 0 mm 5 mps 753 mmHg 58%
08:00 +8°C° 0 mm 5 mps 753 mmHg 57%
09:00 +9°C° 0 mm 6 mps 752 mmHg 52%
10:00 +11°C° 0 mm 6 mps 752 mmHg 47%
11:00 +14°C° 0 mm 7 mps 752 mmHg 42%
12:00 +14°C° 0 mm 6 mps 751 mmHg 42%
13:00 +15°C° 0 mm 6 mps 751 mmHg 42%
14:00 +16°C° 0 mm 6 mps 751 mmHg 41%
15:00 +16°C° 0 mm 5 mps 751 mmHg 44%
16:00 +17°C° 0 mm 4 mps 750 mmHg 47%
17:00 +17°C° 0 mm 3 mps 750 mmHg 50%
18:00 +16°C° 0 mm 3 mps 750 mmHg 53%
19:00 +14°C° 0 mm 3 mps 750 mmHg 57%
20:00 +13°C° 0 mm 3 mps 750 mmHg 60%
21:00 +12°C° 0 mm 3 mps 750 mmHg 61%
22:00 +12°C° 0 mm 3 mps 750 mmHg 62%
23:00 +11°C° 0 mm 3 mps 750 mmHg 63%

Tomorrow, 13 April, Tuesday

Time Temperature Precipitation Wind Pressure Humidity
00:00 +11°C° 0 mm 3 mps 750 mmHg 64%
01:00 +12°C° 0 mm 2 mps 750 mmHg 66%
02:00 +12°C° 0 mm 2 mps 750 mmHg 68%
03:00 +10°C° 0 mm 2 mps 750 mmHg 74%
04:00 +9°C° 0 mm 2 mps 750 mmHg 80%
05:00 +9°C° 0 mm 2 mps 750 mmHg 86%
06:00 +9°C° 0 mm 3 mps 751 mmHg 85%
07:00 +9°C° 0 mm 3 mps 751 mmHg 83%
08:00 +9°C° 0 mm 3 mps 751 mmHg 82%
09:00 +9°C° 0.1 mm 3 mps 751 mmHg 81%
10:00 +10°C° 0.1 mm 4 mps 751 mmHg 79%
11:00 +10°C° 0.1 mm 4 mps 751 mmHg 78%
12:00 +10°C° 0 mm 4 mps 751 mmHg 78%
13:00 +10°C° 0 mm 4 mps 751 mmHg 78%
14:00 +10°C° 0 mm 4 mps 751 mmHg 78%
15:00 +8°C° 0 mm 5 mps 751 mmHg 79%
16:00 +8°C° 0 mm 5 mps 750 mmHg 81%
17:00 +7°C° 0 mm 5 mps 750 mmHg 82%
18:00 +7°C° 0.1 mm 5 mps 750 mmHg 84%
19:00 +6°C° 0.1 mm 5 mps 750 mmHg 86%
20:00 +5°C° 0.1 mm 5 mps 750 mmHg 88%
21:00 +5°C° 0 mm 5 mps 750 mmHg 88%
22:00 +3°C° 0 mm 5 mps 750 mmHg 89%
23:00 +3°C° 0 mm 5 mps 750 mmHg 89%

Day after tomorrow, 14 April, Wednesday

Time Temperature Precipitation Wind Pressure Humidity
00:00 +3°C° 0 mm 5 mps 749 mmHg 89%
01:00 +3°C° 0 mm 5 mps 749 mmHg 88%
02:00 +3°C° 0 mm 5 mps 749 mmHg 87%
03:00 +2°C° 0 mm 5 mps 749 mmHg 88%
04:00 +2°C° 0 mm 5 mps 749 mmHg 88%
05:00 +2°C° 0 mm 5 mps 748 mmHg 89%
06:00 +2°C° 0.2 mm 5 mps 748 mmHg 90%
07:00 +2°C° 0.2 mm 6 mps 748 mmHg 91%
08:00 +1°C° 0.2 mm 6 mps 748 mmHg 92%
09:00 +1°C° 0.5 mm 6 mps 748 mmHg 93%
10:00 +1°C° 0.5 mm 6 mps 748 mmHg 93%
11:00 +1°C° 0.5 mm 6 mps 748 mmHg 94%
12:00 +1°C° 0.6 mm 5 mps 748 mmHg 94%
13:00 +1°C° 0.6 mm 5 mps 748 mmHg 94%
14:00 +1°C° 0.6 mm 5 mps 748 mmHg 94%
15:00 +1°C° 0.5 mm 5 mps 748 mmHg 94%
16:00 +1°C° 0.5 mm 5 mps 748 mmHg 95%
17:00 +1°C° 0.5 mm 5 mps 748 mmHg 95%
18:00 0°C° 0.5 mm 5 mps 748 mmHg 95%
19:00 0°C° 0.5 mm 4 mps 748 mmHg 96%
20:00 0°C° 0.5 mm 4 mps 748 mmHg 96%
21:00 0°C° 0.4 mm 4 mps 748 mmHg 96%
22:00 0°C° 0.4 mm 4 mps 748 mmHg 97%
23:00 +1°C° 0.4 mm 3 mps 748 mmHg 97%

15 April, Thursday

Time Temperature Precipitation Wind Pressure Humidity
00:00 +1°C° 0.3 mm 3 mps 748 mmHg 97%
01:00 +1°C° 0.3 mm 3 mps 748 mmHg 97%
02:00 +2°C° 0.3 mm 2 mps 748 mmHg 97%
03:00 +2°C° 0.2 mm 2 mps 748 mmHg 97%
04:00 +3°C° 0.2 mm 2 mps 748 mmHg 97%
05:00 +4°C° 0.2 mm 1 mps 747 mmHg 97%
06:00 +4°C° 0.1 mm 1 mps 748 mmHg 97%
07:00 +4°C° 0.1 mm 1 mps 748 mmHg 96%
08:00 +4°C° 0.1 mm 1 mps 748 mmHg 96%
09:00 +5°C° 0 mm 1 mps 748 mmHg 92%
10:00 +6°C° 0 mm 1 mps 748 mmHg 89%
11:00 +7°C° 0 mm 1 mps 748 mmHg 86%
12:00 +7°C° 0 mm 1 mps 748 mmHg 83%
13:00 +8°C° 0 mm 1 mps 748 mmHg 80%
14:00 +8°C° 0 mm 2 mps 748 mmHg 76%
15:00 +8°C° 0 mm 2 mps 748 mmHg 76%
16:00 +8°C° 0 mm 2 mps 748 mmHg 76%
17:00 +8°C° 0 mm 2 mps 748 mmHg 75%
18:00 +7°C° 0 mm 2 mps 748 mmHg 79%
19:00 +7°C° 0 mm 2 mps 748 mmHg 83%
20:00 +5°C° 0 mm 3 mps 748 mmHg 87%
21:00 +5°C° 0 mm 3 mps 748 mmHg 88%
22:00 +5°C° 0 mm 3 mps 748 mmHg 89%
23:00 +4°C° 0 mm 3 mps 748 mmHg 90%

16 April, Friday

Time Temperature Precipitation Wind Pressure Humidity
00:00 +4°C° 0 mm 3 mps 748 mmHg 92%
01:00 +4°C° 0 mm 3 mps 748 mmHg 94%
02:00 +5°C° 0 mm 3 mps 747 mmHg 95%
03:00 +5°C° 0.5 mm 3 mps 747 mmHg 96%
04:00 +5°C° 0.5 mm 4 mps 747 mmHg 96%
05:00 +5°C° 0.5 mm 4 mps 747 mmHg 97%
06:00 +5°C° 0.6 mm 4 mps 747 mmHg 95%
07:00 +6°C° 0.6 mm 4 mps 747 mmHg 93%
08:00 +6°C° 0.6 mm 5 mps 747 mmHg 92%
09:00 +7°C° 0 mm 5 mps 747 mmHg 89%
10:00 +8°C° 0 mm 5 mps 747 mmHg 86%
11:00 +9°C° 0 mm 5 mps 747 mmHg 83%
12:00 +10°C° 0 mm 5 mps 747 mmHg 79%
13:00 +12°C° 0 mm 5 mps 747 mmHg 75%
14:00 +13°C° 0 mm 5 mps 747 mmHg 71%
15:00 +12°C° 0.1 mm 5 mps 747 mmHg 74%
16:00 +11°C° 0.1 mm 6 mps 747 mmHg 77%
17:00 +11°C° 0.1 mm 6 mps 747 mmHg 80%
18:00 +10°C° 1.4 mm 6 mps 747 mmHg 84%
19:00 +10°C° 1.4 mm 5 mps 747 mmHg 88%
20:00 +9°C° 1.4 mm 5 mps 747 mmHg 93%
21:00 +9°C° 0.2 mm 5 mps 748 mmHg 92%
22:00 +9°C° 0.2 mm 5 mps 748 mmHg 92%
23:00 +9°C° 0.2 mm 5 mps 748 mmHg 92%

17 April, Saturday

Time Temperature Precipitation Wind Pressure Humidity
00:00 +9°C° 0.1 mm 5 mps 748 mmHg 92%
01:00 +9°C° 0.1 mm 5 mps 749 mmHg 92%
02:00 +9°C° 0.1 mm 5 mps 749 mmHg 93%
03:00 +9°C° 0.7 mm 5 mps 749 mmHg 93%
04:00 +9°C° 0.7 mm 5 mps 749 mmHg 92%
05:00 +9°C° 0.7 mm 5 mps 750 mmHg 92%
06:00 +9°C° 0 mm 5 mps 750 mmHg 92%
07:00 +9°C° 0 mm 5 mps 751 mmHg 91%
08:00 +9°C° 0 mm 5 mps 751 mmHg 90%
09:00 +9°C° 0.1 mm 5 mps 752 mmHg 90%
10:00 +9°C° 0.1 mm 5 mps 752 mmHg 90%
11:00 +8°C° 0.1 mm 5 mps 752 mmHg 89%
12:00 +9°C° 0.1 mm 5 mps 753 mmHg 85%
13:00 +10°C° 0.1 mm 5 mps 753 mmHg 81%
14:00 +13°C° 0.1 mm 6 mps 753 mmHg 77%
15:00 +10°C° 0.2 mm 6 mps 753 mmHg 80%
16:00 +9°C° 0.2 mm 6 mps 754 mmHg 84%
17:00 +8°C° 0.2 mm 6 mps 754 mmHg 87%
18:00 +8°C° 0 mm 6 mps 754 mmHg 87%
19:00 +8°C° 0 mm 5 mps 755 mmHg 88%
20:00 +8°C° 0 mm 5 mps 755 mmHg 88%
21:00 +8°C° 0 mm 5 mps 755 mmHg 88%
22:00 +7°C° 0 mm 5 mps 755 mmHg 89%
23:00 +7°C° 0 mm 5 mps 756 mmHg 89%
Show more